TimeCDT,TemperatureF,Dew PointF,Humidity,Sea Level PressureIn,VisibilityMPH,Wind Direction,Wind SpeedMPH,Gust SpeedMPH,PrecipitationIn,Events,Conditions,WindDirDegrees,DateUTC
12:54 AM,48.9,43.0,80,30.24,10.0,Calm,Calm,-,N/A,,Clear,0,2011-10-05 05:54:00
1:54 AM,48.2,42.8,82,30.25,10.0,Calm,Calm,-,N/A,,Clear,0,2011-10-05 06:54:00
2:54 AM,46.9,42.1,83,30.25,10.0,Calm,Calm,-,N/A,,Clear,0,2011-10-05 07:54:00
3:54 AM,46.0,42.1,86,30.25,10.0,Calm,Calm,-,N/A,,Clear,0,2011-10-05 08:54:00
4:54 AM,46.9,41.0,80,30.25,10.0,Calm,Calm,-,N/A,,Clear,0,2011-10-05 09:54:00
5:54 AM,46.9,42.1,83,30.27,10.0,Calm,Calm,-,N/A,,Clear,0,2011-10-05 10:54:00
6:54 AM,45.0,41.0,86,30.28,10.0,Calm,Calm,-,N/A,,Clear,0,2011-10-05 11:54:00
7:54 AM,48.9,46.0,90,30.29,10.0,Calm,Calm,-,N/A,,Clear,0,2011-10-05 12:54:00
8:54 AM,61.0,51.1,70,30.30,10.0,Calm,Calm,-,N/A,,Clear,0,2011-10-05 13:54:00
9:54 AM,69.1,52.0,54,30.30,10.0,South,3.5,-,N/A,,Clear,190,2011-10-05 14:54:00
10:54 AM,73.9,48.9,41,30.29,10.0,West,3.5,-,N/A,,Clear,270,2011-10-05 15:54:00
11:54 AM,78.1,46.9,33,30.27,10.0,SW,8.1,-,N/A,,Clear,220,2011-10-05 16:54:00
12:54 PM,79.0,46.0,31,30.25,10.0,South,5.8,-,N/A,,Clear,190,2011-10-05 17:54:00
1:54 PM,81.0,45.0,28,30.22,10.0,Variable,4.6,-,N/A,,Clear,0,2011-10-05 18:54:00
2:54 PM,82.0,45.0,27,30.20,10.0,South,4.6,-,N/A,,Clear,190,2011-10-05 19:54:00
3:54 PM,82.0,45.0,27,30.19,10.0,SSE,6.9,-,N/A,,Clear,160,2011-10-05 20:54:00
4:54 PM,81.0,46.0,29,30.18,10.0,South,5.8,-,N/A,,Clear,170,2011-10-05 21:54:00
5:54 PM,75.9,48.0,37,30.18,10.0,SSE,5.8,-,N/A,,Clear,150,2011-10-05 22:54:00
6:54 PM,71.1,45.0,39,30.18,10.0,SSE,5.8,-,N/A,,Clear,160,2011-10-05 23:54:00
7:54 PM,63.0,45.0,52,30.19,10.0,Calm,Calm,-,N/A,,Clear,0,2011-10-06 00:54:00
8:54 PM,60.1,46.0,60,30.19,10.0,Calm,Calm,-,N/A,,Clear,0,2011-10-06 01:54:00
9:54 PM,57.9,46.0,65,30.21,10.0,SSE,5.8,-,N/A,,Clear,150,2011-10-06 02:54:00
10:54 PM,57.0,46.0,67,30.21,10.0,South,5.8,-,N/A,,Clear,170,2011-10-06 03:54:00
11:54 PM,54.0,46.0,75,30.20,10.0,Calm,Calm,-,N/A,,Clear,0,2011-10-06 04:54:00